Regional Weather Roundup
Issued by NWS

Home | Current Version | Previous Version | Graphics & Text | Print | Product List | Glossary On
Versions: 1 2 3 4 5 6 7 8 9 10 11 12 13 14 15 16 17 18 19 20 21 22 23 24 25 26 27 28 29 30 31 32 33 34 35 36 37 38 39 40 41 42 43 44 45 46 47 48 49 50
000
ASUS45 KBOU 152310
RWRCO

WEATHER ROUNDUP FOR COLORADO
NATIONAL WEATHER SERVICE DENVER/BOULDER CO
400 PM MST MON JAN 15 2018

NOTE: "FAIR" INDICATES FEW OR NO CLOUDS BELOW 12000 FEET WITH NO
SIGNIFICANT WEATHER AND/OR OBSTRUCTIONS TO VISIBILITY.

COZ001>005-013-030-031-160000-
...NORTHWEST COLORADO...

CITY           SKY/WX    TMP DP  RH WIND       PRES   REMARKS
CRAIG          FAIR      33  11  39 N13G20    30.35S WCI  24
HAYDEN         FAIR      26  19  74 S6        30.35S WCI  19
MEEKER         FAIR      36  19  50 N12       30.32R
RABBIT EARS PA FLURRIES N/A N/A N/A NW6       30.26R
STEAMBOAT SPGS FAIR      28  19  71 CALM      30.32R
WALDEN         FAIR      21  -8  27 N16       30.32R WCI   7
$$

COZ006>008-011-160000-
...WEST CENTRAL VALLEYS...

CITY           SKY/WX    TMP DP  RH WIND       PRES   REMARKS
GRAND JUNCTION FAIR      47  23  38 NE10      30.27R
MONTROSE       FAIR      43  22  43 CALM      30.26R
EAGLE          PTSUNNY   38  19  46 E10       30.27S
RIFLE          FAIR      42  23  46 NW18G28   30.27R
DELTA          FAIR      48  21  34 CALM      30.23R
NUCLA          FAIR      48  21  34 NW6       30.25R
$$

COZ017>023-064>068-160000-
...SOUTHWEST COLORADO...

CITY           SKY/WX    TMP DP  RH WIND       PRES   REMARKS
DURANGO        FAIR      44  24  45 SW8       30.15R
CORTEZ         FAIR      44  25  47 W10       30.17R
PAGOSA SPRINGS FAIR      42  18  38 NE3       30.17R
TELLURIDE      FAIR      38  11  33 NW7G16    30.23R
WOLF CREEK PAS FAIR      28  10  47 SW8       30.28R WCI  20
$$

COZ009-010-012-014-032>034-037-058>063-160000-
...CENTRAL COLORADO...

CITY           SKY/WX    TMP DP  RH WIND       PRES   REMARKS
ASPEN          FAIR      37  20  50 N9G16     30.22R
BUENA VISTA    FAIR      29  17  59 SE18      30.19R WCI  17
COPPER MTN     NOT AVBL
BERTHOUD PASS  CLOUDY     7  -4  61 NW29G37   30.14R WCI -16
COTTONWOOD PAS NOT AVBL
GUNNISON       FAIR      39  18  42 W13G22    30.18R
KREMMLING      NOT AVBL
LEADVILLE      FAIR      27  12  53 N10G20    30.20R WCI  17
MONARCH PASS   FAIR      21  14  73 W28G36    30.29F WCI   3
SALIDA         FAIR      26  18  73 SE16G25   30.29S WCI  13
SUNLIGHT       CLOUDY    19  18  93 NW3       30.30R
WILKERSON PASS FAIR      14   9  79 N10       30.20R HAZE    WCI   1
$$

COZ069>075-160000-
...SAN LUIS VALLEY/SANGRE DE CRISTO MOUNTAINS...

CITY           SKY/WX    TMP DP  RH WIND       PRES   REMARKS
ALAMOSA        FAIR      44  12  27 SE8       30.12R
DEL NORTE      FAIR      46   8  21 E7        30.12R
LA VETA PASS   LGT SNOW   9   3  78 N12G18      N/A  VSB 1   WCI  -6
SAGUACHE       FAIR      45  14  29 N8        30.14R
$$

COZ035-036-038>040-160000-
...NORTHERN COLORADO FRONT RANGE...

CITY           SKY/WX    TMP DP  RH WIND       PRES   REMARKS
DENVER INTL AP MOCLDY    18   3  52 NE13      30.45R WCI   5
DMNS CITY PARK NOT AVBL
AURORA         MOCLDY    15   6  68 E7        30.45R WCI   5
FRONT RANGE AP MOCLDY    19   7  58 N6        30.45R WCI  11
ERIE MUNI ARPT MOCLDY    20  13  72 SE7       30.53R WCI  11
BOULDER MUN AP FLURRIES  21  14  73 SE6       30.45R WCI  14
CENTENNIAL     MOCLDY    16   8  71 NE5       30.43R WCI   9
BROOMFIELD     MOCLDY    19  12  73 E5        30.44R WCI  13
FORT COLLINS   FAIR      20  12  71 S10       30.47R WCI   9
LONGMONT       CLOUDY    23  12  62 S7        30.49R WCI  15
$$

COZ041-046-047-076>085-087-088-160000-
...PIKES PEAK/PALMER DIVIDE AND SOUTHERN FOOTHILLS...

CITY           SKY/WX    TMP DP  RH WIND       PRES   REMARKS
COLO. SPRINGS  FLURRIES  20   8  60 N13       30.39R WCI   7
A. F. ACADEMY  FLURRIES  16   7  67 N13       30.37R WCI   2
SCHRIEVER AFB  FLURRIES  15   8  72 NE12      30.38R WCI   2
CHEYENNE MTN   FLURRIES  15  10  80 CALM      30.29R
ELLICOTT         N/A    N/A N/A N/A NE17        N/A
FALCON         CLOUDY    13   6  76 NE10      30.37R WCI   0
FORT CARSON    FLURRIES  19  16  86 S10       30.39R WCI   8
LIMON          FAIR      16  -2  45 N24G30    30.42R WCI  -2
MONUMENT HILL  FAIR       7   3  85 N5        30.37R WCI  -2
CANON CITY     FLURRIES  23  19  86 E8        30.42R WCI  14
WALSENBURG     CLOUDY    18  16  93 E6        30.40R WCI   9
TRINIDAD       CLOUDY    17  13  84 NE12      30.42R WCI   4
$$

COZ042>045-048>051-090-091-160000-
...NORTHEAST COLORADO...

CITY           SKY/WX    TMP DP  RH WIND       PRES   REMARKS
GREELEY ARPT   FAIR      20   4  50 NE14      30.49R WCI   7
AKRON          FAIR      15   0  51 N20G26    30.48R WCI  -2
BURLINGTON     FAIR      15   1  53 N20G26    30.50R WCI  -2
WRAY           FAIR      14   0  52 MISG      30.57R
YUMA           FAIR      12  -2  52 N16G23    30.52R WCI  -4
STERLING       FAIR      19   0  42 N18G30    30.52R WCI   4
HOLYOKE        FAIR      14   1  57 N18G25    30.56S WCI  -3
FORT MORGAN    FAIR      19 -10  28 N28G37    30.48R WCI   0
$$

COZ086-089-092>099-160000-
...SOUTHEAST COLORADO...

CITY           SKY/WX    TMP DP  RH WIND       PRES   REMARKS
PUEBLO         LGT SNOW  22  15  75 E9        30.48R WCI  12
LA JUNTA       CLOUDY    25   5  42 N10       30.49R WCI  15
LAMAR          CLOUDY    24  -2  32 N17       30.49R WCI  11
SPRINGFIELD      N/A     20   9  62 N14       30.45R WCI   7
$$



USA.gov is the U.S. government's official web portal to all federal, state and local government web resources and services.